Home > Weather > Rarotonga > Past weeks

Flag for Cook Islands Past Weather in Rarotonga, Cook Islands — Yesterday and Last 2 Weeks

Now
79 °F

Passing clouds.


Feels Like: 82 °F
Forecast: 71 / 80 °F
Wind: 12 mph from East

Location: Rarotonga

Current Time: May 30, 2016 at 4:13:27 PM

Latest Report: May 30, 2016 at 3:00 PM


Visibility: N/A

Pressure: 29.95 "Hg

Humidity: 79%

Dew Point: 72 °F

Location of RarotongaLocation

Past Weather in Rarotonga — Graph

°F

Rarotonga Temperature Yesterday

Maximum temperature yesterday: 79 °F (at 11:00 AM)
Minimum temperature yesterday: 68 °F (at 7:00 AM)
Average temperature yesterday: 74 °F

High & Low Weather Summary for the Past Weeks

 TemperatureHumidityPressure
High81 °F (May 15, 3:00 PM)100% (May 16, 5:00 AM)30.09 "Hg (May 16, 5:00 AM)
Low61 °F (May 25, 6:00 AM)47% (May 23, 1:00 PM)29.80 "Hg (May 17, 3:00 AM)
Average74 °F84%29.96 "Hg
* Reported May 15 3:00 PM — May 30 3:00 PM, Rarotonga, Weather by CustomWeather, © 2016

Note: Actual official high and low records may vary slightly from our data, if they occured in-between our weather recording intervals... More about our weather records

Advertising

Rarotonga Weather History for the Previous 24 Hours

Scroll right to see more
 ConditionsComfort  
Time TempWeatherWind HumidityBarometerVisibility
3:00 PM
Mon, May 30
79 °FPassing clouds.12 mph79%29.95 "HgN/A
2:00 PM79 °FPassing clouds.14 mph79%29.98 "HgN/A
1:00 PM79 °FSprinkles. Scattered clouds.14 mph84%30.01 "HgN/A
12:00 PM77 °FBroken clouds.10 mph83%30.01 "HgN/A
11:00 AM79 °FScattered clouds.8 mph79%30.04 "HgN/A
10:00 AM75 °FMild.9 mph89%30.04 "HgN/A
9:00 AM75 °FScattered clouds.9 mph89%30.04 "HgN/A
8:00 AM73 °FScattered clouds.6 mph89%30.04 "HgN/A
7:00 AM73 °FPartly cloudy.6 mph83%30.01 "HgN/A
6:00 AM73 °FPassing clouds.7 mph83%30.01 "HgN/A
5:00 AM72 °FPassing clouds.5 mph94%29.98 "HgN/A
4:00 AM75 °FPassing clouds.6 mph83%29.98 "HgN/A
3:00 AM75 °FPassing clouds.8 mph83%29.98 "HgN/A
2:00 AM75 °FPassing clouds.9 mph83%30.01 "HgN/A
1:00 AM73 °FPassing clouds.9 mph83%30.01 "HgN/A
12:00 AM73 °FPassing clouds.7 mph83%30.01 "HgN/A
11:00 PM
Sun, May 29
73 °FPassing clouds.7 mph83%30.04 "HgN/A
10:00 PM73 °FPassing clouds.6 mph83%30.01 "HgN/A
9:00 PM73 °FPassing clouds.5 mph83%30.01 "HgN/A
8:00 PM72 °FPassing clouds.8 mph83%30.01 "HgN/A
7:00 PM73 °FPassing clouds.7 mph89%29.98 "HgN/A
6:00 PM75 °FPassing clouds.7 mph83%29.98 "HgN/A
5:00 PM77 °FScattered clouds.10 mph79%29.98 "HgN/A
4:00 PM77 °FScattered clouds.12 mph79%29.95 "HgN/A
Weather by CustomWeather, © 2016

See weather overviewHow to use our weather pages